S59MA-6 Weather Reports


Display with metric or nautical units.
time (UTC)temp
F
wind
direction
speed
MPH
gust
MPH
rain 1hr
in
rain 24hr
in
rain mn
in
humidity
%
barometer
mb
20260506173533 60 248 0.0 0.0 0.00 9.99 0.00 82 998.5
20260506173033 60 248 22.0 22.0 0.00 9.99 0.00 82 998.4
20260506172533 60 248 22.0 22.0 0.00 9.99 0.00 82 998.5
20260506171534 60 248 0.0 0.0 0.00 9.99 0.00 82 998.3
20260506170535 60 248 0.0 0.0 0.00 9.99 0.00 82 998.4
20260506170033 60 248 0.0 0.0 0.00 9.99 0.00 82 998.4
20260506165533 60 248 0.0 0.0 0.00 9.99 0.00 82 998.6
20260506165413 60 248 0.0 0.0 0.00 9.99 0.00 82 998.6
20260506165034 60 248 0.0 0.0 0.00 9.99 0.00 82 998.6
20260506163534 61 248 0.0 0.0 0.12 9.99 0.00 81 998.7
20260506163035 61 248 0.0 0.0 0.18 9.99 0.00 81 998.6
20260506162534 61 248 2.0 2.0 0.18 9.99 0.00 81 998.6
20260506162034 61 248 0.0 0.0 0.18 9.99 0.00 82 998.6
20260506161535 61 248 0.0 0.0 0.18 9.99 0.00 82 998.9
20260506161035 61 248 0.0 0.0 0.18 9.99 0.00 82 999.0
20260506160536 61 248 3.0 3.0 0.18 9.99 0.00 82 999.0
20260506160035 61 248 3.0 3.0 0.18 9.99 0.00 82 998.9
20260506155534 61 248 0.0 0.0 0.18 9.99 0.00 82 998.9
20260506155034 62 359 0.0 0.0 0.18 9.99 0.00 82 998.8
20260506154534 62 359 0.0 0.0 0.18 9.99 0.00 83 999.0
20260506153534 61 248 23.0 23.0 0.06 9.99 0.00 84 999.0
20260506152534 60 359 0.0 0.0 0.00 9.99 0.00 84 999.3
20260506152034 61 248 0.0 0.0 0.00 9.99 0.00 84 999.4
20260506151536 61 248 0.0 0.0 0.00 9.99 0.00 84 999.2
20260506151034 60 248 0.0 0.0 0.00 9.99 0.00 85 999.5
20260506150534 60 248 0.0 0.0 0.00 9.99 0.00 85 999.2
20260506150034 60 248 0.0 0.0 0.00 9.99 0.00 85 999.4
20260506145534 59 248 0.0 0.0 0.00 9.99 0.00 85 999.5
20260506145034 59 248 0.0 0.0 0.04 9.99 0.00 85 999.4
20260506143534 59 248 3.0 3.0 0.04 9.99 0.00 86 999.4
20260506143035 59 248 3.0 3.0 0.04 9.99 0.00 86 999.4
20260506142534 59 248 0.0 0.0 0.04 9.99 0.00 85 999.6
20260506141534 59 248 0.0 0.0 0.04 9.99 0.00 85 999.7
20260506140534 59 248 0.0 0.0 0.12 9.99 0.00 85 999.7
20260506140034 59 248 0.0 0.0 0.12 9.99 0.00 85 999.6
20260506135535 59 248 0.0 0.0 0.14 9.99 0.00 86 999.9
20260506134539 59 248 20.0 20.0 0.10 9.99 0.00 86 999.8
20260506133534 59 248 4.0 4.0 0.12 9.99 0.00 86 1000.0
20260506132534 59 248 22.0 22.0 0.12 9.99 0.00 86 999.8
20260506132034 58 248 22.0 22.0 0.12 9.99 0.00 86 999.9
20260506131034 59 359 0.0 0.0 2.32 9.99 0.00 86 999.9
20260506125534 58 248 22.0 22.0 9.99 9.99 0.00 85 1000.0
20260506125034 58 248 0.0 0.0 9.99 9.99 0.00 85 1000.0
20260506124536 58 248 0.0 0.0 9.99 9.99 0.00 85 1000.1
20260506123536 58 248 0.0 0.0 9.99 9.99 0.00 85 1000.0
20260506123115 58 248 0.0 0.0 9.99 9.99 0.00 85 1000.1
20260506123034 58 248 0.0 0.0 9.99 9.99 0.00 85 1000.1
20260506122534 58 248 0.0 0.0 9.99 9.99 0.00 85 1000.2
20260506121534 58 248 0.0 0.0 9.99 9.99 0.00 85 1000.2
20260506121037 58 248 0.0 0.0 9.99 9.99 0.00 84 1000.1
20260506120035 59 359 0.0 0.0 5.20 9.99 0.00 84 999.8
20260506115534 58 248 0.0 0.0 0.00 9.99 0.00 84 999.5
20260506115035 58 248 0.0 0.0 0.00 9.99 0.00 84 1000.4
20260506114535 59 248 0.0 0.0 0.00 9.99 0.00 84 1000.3
20260506114035 59 248 0.0 0.0 0.00 9.99 0.00 84 1000.3
20260506113535 59 248 0.0 0.0 0.00 9.99 0.00 84 1000.3
20260506113036 59 248 0.0 0.0 0.00 9.99 0.00 84 1000.4
20260506112536 59 248 0.0 0.0 0.00 9.99 0.00 83 1000.4
20260506112036 59 248 0.0 0.0 0.00 9.99 0.00 83 1000.5
20260506111535 59 248 0.0 0.0 0.00 9.99 0.00 83 1000.4
20260506111036 59 248 0.0 0.0 0.00 9.99 0.00 83 1000.4
20260506110536 60 248 0.0 0.0 0.00 9.99 0.00 84 1000.5
20260506110035 60 248 0.0 0.0 0.00 9.99 0.00 84 1000.5
20260506105535 60 248 0.0 0.0 0.00 9.99 0.00 84 1000.5
20260506105037 60 248 0.0 0.0 0.00 9.99 0.00 84 1000.6
20260506104536 60 248 0.0 0.0 0.00 9.99 0.00 84 1000.7
20260506104035 60 248 0.0 0.0 0.00 9.99 0.00 84 1000.6
20260506103536 60 248 0.0 0.0 0.00 9.99 0.00 84 1000.6
20260506103037 60 248 0.0 0.0 0.00 9.99 0.00 84 1000.7
20260506102536 59 248 0.0 0.0 0.06 9.99 0.00 84 1000.5
20260506102035 59 248 0.0 0.0 0.06 9.99 0.00 84 1000.6
20260506101535 59 248 0.0 0.0 0.08 9.99 0.00 84 1000.7
20260506100537 59 248 0.0 0.0 0.08 9.99 0.00 83 1000.9
20260506100035 59 248 0.0 0.0 0.10 9.99 0.00 83 1001.0
20260506095535 59 248 0.0 0.0 0.10 9.99 0.00 83 1001.1
20260506095039 60 248 0.0 0.0 0.10 9.99 0.00 83 1001.1
20260506094535 60 248 0.0 0.0 0.10 9.99 0.00 83 1001.2
20260506093535 60 248 37.0 37.0 0.12 9.99 0.00 83 1001.1
20260506093036 60 248 37.0 37.0 0.12 9.99 0.00 84 1001.1
20260506092536 60 248 37.0 37.0 0.06 9.99 0.00 84 1001.1
20260506092035 60 248 37.0 37.0 0.06 9.99 0.00 84 1001.0
20260506091037 60 359 0.0 0.0 0.04 9.99 0.00 84 1001.0
20260506090536 60 359 0.0 0.0 0.04 9.99 0.00 84 1001.1
20260506090036 60 359 0.0 0.0 0.02 9.99 0.00 84 1001.0
20260506084535 60 248 41.0 41.0 0.02 9.99 0.00 83 1000.9
20260506083537 60 248 13.0 13.0 0.00 9.99 0.00 83 1000.7
20260506083038 60 248 0.0 0.0 0.00 9.99 0.00 83 1000.7
20260506082537 60 248 0.0 0.0 0.00 9.99 0.00 83 1000.7
20260506082035 60 248 0.0 0.0 0.00 9.99 0.00 83 1000.6
20260506081035 60 248 0.0 0.0 0.00 9.99 0.00 83 1000.5
20260506080539 61 248 0.0 0.0 0.00 9.99 0.00 83 1000.4
20260506072538 58 248 0.0 0.0 0.00 9.99 0.00 86 1000.3
20260506072037 57 248 0.0 0.0 0.00 9.99 0.00 86 1000.4
20260506071629 57 180 0.0 0.0 0.00 9.99 0.00 86 1000.5
20260506071535 57 180 0.0 0.0 0.00 9.99 0.00 86 1000.5
20260506070536 56 180 0.0 0.0 0.00 9.99 0.00 85 1000.6
20260506061537 57 270 0.0 0.0 0.00 9.99 0.00 85 1000.5
20260506061036 57 270 0.0 0.0 0.00 9.99 0.00 85 1000.5
20260506060536 57 270 0.0 0.0 0.00 9.99 0.00 86 1000.4
20260506051036 54 248 0.0 0.0 0.00 9.99 0.00 86 1000.4
20260506050536 53 248 0.0 0.0 0.00 9.99 0.00 87 1000.3
20260506045036 51 248 0.0 0.0 0.00 9.99 0.00 86 1000.4
20260506044536 51 248 0.0 0.0 0.00 9.99 0.00 86 1000.4
20260506043539 51 248 0.0 0.0 0.00 9.99 0.00 86 1000.4
20260506042537 52 248 0.0 0.0 0.00 9.99 0.00 86 1000.3
20260506042110 52 248 0.0 0.0 0.00 9.99 0.00 86 1000.4
20260506042038 52 248 0.0 0.0 0.00 9.99 0.00 86 1000.4
20260506041537 52 248 0.0 0.0 0.00 9.99 0.00 86 1000.4
20260506041038 52 248 0.0 0.0 0.00 9.99 0.00 85 1000.4
20260506040537 52 248 0.0 0.0 0.00 9.99 0.00 85 1000.5
20260506040038 52 248 0.0 0.0 0.00 9.99 0.00 85 1000.5
20260506035537 52 248 0.0 0.0 0.00 9.99 0.00 85 1000.6
20260506035036 52 248 0.0 0.0 0.00 9.99 0.00 85 1000.5
20260506034536 52 248 0.0 0.0 0.00 9.99 0.00 85 1000.6
20260506034039 52 248 0.0 0.0 0.00 9.99 0.00 85 1000.4
20260506033536 52 248 0.0 0.0 0.00 9.99 0.00 85 1000.5
20260506033036 53 248 0.0 0.0 0.00 9.99 0.00 85 1000.6
20260506032536 53 248 0.0 0.0 0.00 9.99 0.00 84 1000.6
20260506031536 53 248 0.0 0.0 0.00 9.99 0.00 84 1000.6
20260506031042 53 248 0.0 0.0 0.00 9.99 0.00 84 1000.3
20260506030539 53 248 0.0 0.0 0.00 9.99 0.00 84 1000.4
20260506030036 54 248 0.0 0.0 0.00 9.99 0.00 84 1000.5
20260506025536 54 248 0.0 0.0 0.00 9.99 0.00 84 1000.4
20260506024536 54 248 0.0 0.0 0.00 9.99 0.00 84 1000.6
20260506023039 55 248 0.0 0.0 0.00 9.99 0.00 84 1000.8
20260506021541 55 248 0.0 0.0 0.00 9.99 0.00 84 1001.0
20260506021039 55 248 0.0 0.0 0.00 9.99 0.00 84 1000.8
20260506020538 55 248 0.0 0.0 0.00 9.99 0.00 84 1000.8
20260506020038 55 248 0.0 0.0 0.00 9.99 0.00 83 1000.8
20260506015537 55 248 0.0 0.0 0.00 9.99 0.00 83 1000.8
20260506015037 55 248 0.0 0.0 0.00 9.99 0.00 83 1000.7
20260506014537 55 248 0.0 0.0 0.00 9.99 0.00 83 1000.8
20260506013539 55 248 0.0 0.0 0.00 9.99 0.00 83 1000.6
20260506013148 56 248 0.0 0.0 0.00 9.99 0.00 83 1000.6
20260506013037 56 248 0.0 0.0 0.00 9.99 0.00 83 1000.6
20260506012538 56 248 0.0 0.0 0.00 9.99 0.00 83 1000.5
20260506012037 56 248 0.0 0.0 0.00 9.99 0.00 83 1000.6
20260506011538 56 248 0.0 0.0 0.00 9.99 0.00 83 1000.7
20260506011037 56 359 0.0 0.0 0.00 9.99 0.00 83 1000.6
20260506010538 56 359 0.0 0.0 0.00 9.99 0.00 83 1000.4
20260506010043 56 248 0.0 0.0 0.00 9.99 0.00 83 1000.4
20260506005543 56 248 0.0 0.0 0.00 9.99 0.00 83 1000.4
20260506005037 55 248 0.0 0.0 0.00 9.99 0.00 83 1000.5
20260506004537 55 248 0.0 0.0 0.00 9.99 0.00 83 1000.6
20260506004040 55 248 0.0 0.0 0.00 9.99 0.00 83 1000.7
20260506003537 55 248 0.0 0.0 0.00 9.99 0.00 83 1000.6
20260506003038 55 248 0.0 0.0 0.00 9.99 0.00 83 1000.5
20260506002037 55 248 0.0 0.0 0.00 9.99 0.00 83 1000.6
20260506001537 56 248 0.0 0.0 0.00 9.99 0.00 83 1000.6
20260506001037 56 248 0.0 0.0 0.00 9.99 0.00 83 1000.7
20260506000037 56 248 0.0 0.0 0.00 9.99 0.00 83 1000.8
20260505235537 56 248 0.0 0.0 0.00 9.99 0.00 83 1001.0
20260505235037 56 248 0.0 0.0 0.00 9.99 0.00 83 1001.0
20260505234537 56 248 0.0 0.0 0.00 9.99 0.00 83 1001.0
20260505234043 56 248 0.0 0.0 0.00 9.99 0.00 83 1001.2
20260505233538 56 248 0.0 0.0 0.00 9.99 0.00 83 1001.2
20260505233039 56 248 0.0 0.0 0.00 9.99 0.00 83 1001.2
20260505232537 56 248 0.0 0.0 0.00 9.99 0.00 83 1001.2
20260505232037 56 248 0.0 0.0 0.00 9.99 0.00 82 1001.2
20260505231540 56 248 0.0 0.0 0.00 9.99 0.00 82 1001.3
20260505231038 56 248 0.0 0.0 0.00 9.99 0.00 82 1001.3
20260505230537 56 248 0.0 0.0 0.00 9.99 0.00 82 1001.3
20260505230037 56 248 0.0 0.0 0.00 9.99 0.00 82 1001.5
20260505225537 56 248 0.0 0.0 0.00 9.99 0.00 82 1001.4
20260505225037 56 248 0.0 0.0 0.00 9.99 0.00 82 1001.4
20260505224538 56 248 0.0 0.0 0.00 9.99 0.00 82 1001.4
20260505224039 56 248 0.0 0.0 0.00 9.99 0.00 82 1001.4
20260505223540 56 248 0.0 0.0 0.00 9.99 0.00 82 1001.5
20260505223037 56 248 0.0 0.0 0.00 9.99 0.00 82 1001.5
20260505222537 56 248 0.0 0.0 0.00 9.99 0.00 82 1001.5
20260505222043 56 248 0.0 0.0 0.00 9.99 0.00 82 1001.5
20260505221539 56 248 0.0 0.0 0.00 9.99 0.00 82 1001.4
20260505221037 56 248 0.0 0.0 0.00 9.99 0.00 82 1001.5
20260505220637 56 248 0.0 0.0 0.00 9.99 0.00 82 1001.5
20260505220539 56 248 0.0 0.0 0.00 9.99 0.00 82 1001.5
20260505220037 56 248 0.0 0.0 0.00 9.99 0.00 82 1001.5
20260505215537 56 248 0.0 0.0 0.00 9.99 0.00 82 1001.5
20260505215039 56 248 0.0 0.0 0.00 9.99 0.00 82 1001.4
20260505214537 56 248 0.0 0.0 0.00 9.99 0.00 82 1001.6
20260505214046 57 248 0.0 0.0 0.00 9.99 0.00 82 1001.6
20260505213039 57 248 0.0 0.0 0.00 9.99 0.00 82 1001.8
20260505212537 57 248 0.0 0.0 0.00 9.99 0.00 82 1001.7
20260505212038 57 248 0.0 0.0 0.00 9.99 0.00 82 1001.7
20260505211539 57 248 0.0 0.0 0.00 9.99 0.00 82 1001.9
20260505211039 57 248 0.0 0.0 0.00 9.99 0.00 82 1001.9
20260505210038 57 248 0.0 0.0 0.00 9.99 0.00 82 1002.0
20260505205538 57 248 0.0 0.0 0.00 9.99 0.00 82 1002.0
20260505205038 57 248 0.0 0.0 0.00 9.99 0.00 83 1001.9
20260505204538 57 248 0.0 0.0 0.00 9.99 0.00 83 1001.9
20260505204042 57 248 0.0 0.0 0.00 9.99 0.00 83 1001.8
20260505203538 57 248 0.0 0.0 0.00 9.99 0.00 83 1001.9
20260505203038 57 248 0.0 0.0 0.00 9.99 0.00 84 1002.0
20260505202538 56 248 0.0 0.0 0.00 9.99 0.00 84 1001.9
20260505202038 56 248 0.0 0.0 0.00 9.99 0.00 84 1001.9
20260505201539 56 248 0.0 0.0 0.00 9.99 0.00 83 1002.0
20260505201039 56 248 0.0 0.0 0.00 9.99 0.00 83 1001.9
20260505200539 56 248 0.0 0.0 0.00 9.99 0.00 83 1002.0
20260505200039 56 248 0.0 0.0 0.00 9.99 0.00 83 1001.9
20260505195538 56 248 0.0 0.0 0.00 9.99 0.00 83 1001.9
20260505195038 56 248 0.0 0.0 0.00 9.99 0.00 83 1001.8
20260505194041 56 248 0.0 0.0 0.00 9.99 0.00 82 1001.6
20260505193541 56 248 0.0 0.0 0.00 9.99 0.00 82 1001.8
20260505193038 55 248 0.0 0.0 5.20 9.99 0.00 82 1001.8
20260505192538 55 248 0.0 0.0 5.35 9.99 0.00 81 1001.6
20260505192042 55 248 0.0 0.0 5.35 9.99 0.00 81 1001.7
20260505191539 55 248 0.0 0.0 5.35 9.99 0.00 81 1001.6
20260505191038 55 248 0.0 0.0 5.35 9.99 0.00 81 1001.8
20260505190538 55 248 0.0 0.0 5.35 9.99 0.00 81 1001.6
20260505190039 55 248 0.0 0.0 5.35 9.99 0.00 81 1001.7
20260505185539 55 248 0.0 0.0 9.99 9.99 0.00 81 1001.5
20260505185038 55 248 0.0 0.0 9.99 9.99 0.00 81 1001.6
20260505184538 55 248 0.0 0.0 9.99 9.99 0.00 80 1001.5
20260505183538 55 248 0.0 0.0 9.99 9.99 0.00 80 1001.3
20260505183038 56 248 0.0 0.0 9.99 9.99 0.00 79 1001.4
20260505182538 56 248 0.0 0.0 9.99 9.99 0.00 79 1001.4
20260505182038 56 248 0.0 0.0 9.99 9.99 0.00 79 1001.4
20260505181539 56 248 0.0 0.0 9.99 9.99 0.00 79 1001.4
20260505181038 56 248 0.0 0.0 9.99 9.99 0.00 79 1001.5
20260505180538 56 248 0.0 0.0 9.99 9.99 0.00 79 1001.5
20260505180038 56 248 0.0 0.0 9.99 9.99 0.00 79 1001.6
20260505175538 56 359 0.0 0.0 9.99 9.99 0.00 78 1001.0
20260505175039 56 359 0.0 0.0 9.99 9.99 0.00 78 1001.5
20260505174540 56 359 0.0 0.0 9.99 9.99 0.00 78 1000.5